Wind_Speed
45 43 42 41 40 38 36 35 33 32 31 31 31 30 27 26 26 27 28 28 27 27 27 28 29 28 28 29 30 31 30 30 30 31 31 31 32 34 36 37 38 38 38
39 37 36 36 36 35 35 33 31 31 31 30 28 26 25 26 26 25 25 25 26 27 28 29 30 30 30 30 31 33 33 33 33 33 32 31 30 30 31 33 35 37 38
33 32 32 32 31 30 32 31 30 30 30 28 25 23 23 23 23 23 24 25 26 28 29 30 31 31 32 32 34 35 35 36 36 36 35 33 31 29 27 27 29 31 31
26 25 27 26 24 23 25 27 29 30 29 26 23 21 21 22 22 23 24 25 27 29 30 31 32 32 33 34 34 35 36 37 38 38 37 35 34 32 29 26 24 24 24
20 18 18 18 16 16 18 21 23 25 24 22 21 20 21 21 22 23 25 26 27 28 29 30 31 32 33 34 34 35 36 37 37 38 37 36 35 34 32 29 26 23 20
14 12 12 12 10 10 10 12 14 16 17 18 20 21 21 22 23 24 24 25 26 28 29 30 31 33 33 34 33 33 34 34 34 35 35 35 35 34 34 32 30 27 23
11 9 8 7 6 6 7 9 12 15 17 19 21 22 23 23 23 24 24 25 26 27 28 29 30 31 32 32 32 32 32 33 33 33 33 33 33 34 35 35 33 31 29
10 9 8 8 9 10 12 13 15 17 19 21 22 22 23 22 22 22 22 23 23 24 26 27 27 28 29 29 30 30 30 31 32 33 33 34 35 35 35 35 35 34 32
9 8 9 9 11 12 14 16 17 18 19 19 20 20 20 20 19 19 19 20 20 21 22 23 24 25 26 27 27 28 29 30 32 33 34 35 36 36 36 35 35 35 35
8 8 8 9 11 12 13 15 17 18 17 16 16 15 15 15 15 15 15 16 17 18 19 20 22 23 24 24 26 27 28 29 31 32 33 34 35 36 36 36 36 35 36
7 8 8 9 9 9 10 12 14 14 13 11 10 10 11 11 12 13 14 15 16 17 17 18 19 20 22 24 26 27 29 30 32 33 34 34 35 36 36 36 36 36 35
7 7 7 8 7 7 7 8 8 9 9 9 9 10 10 11 11 12 13 13 13 13 14 16 18 20 22 24 26 28 30 31 32 33 34 35 35 36 36 37 37 37 37
11 10 9 8 7 6 5 5 5 5 7 8 9 9 10 11 11 11 11 12 13 14 15 17 19 21 23 24 26 27 29 29 30 30 30 31 32 33 34 35 36 37 37
14 13 11 10 9 7 6 6 6 6 7 8 9 10 10 11 11 12 12 13 14 14 16 18 20 21 22 22 23 24 24 25 25 25 25 26 27 28 30 31 33 35 36
16 15 14 13 11 10 10 9 9 9 9 10 10 11 12 13 13 14 14 14 14 15 16 18 19 19 20 21 22 22 23 23 22 23 23 23 24 25 25 26 28 31 33
18 17 16 15 15 14 14 13 13 13 12 12 13 13 14 14 14 14 14 14 13 14 15 16 17 18 19 21 22 22 22 22 22 22 22 23 23 23 24 24 25 27 30
21 20 18 17 17 17 17 17 17 16 16 15 16 16 16 15 14 14 13 13 13 13 13 14 16 18 20 22 23 23 23 23 23 22 22 21 21 22 22 23 24 25 26
26 24 22 21 19 18 18 18 19 19 18 18 18 17 17 16 15 14 13 12 12 11 12 13 15 18 21 23 24 25 25 25 24 23 22 20 20 20 21 22 22 23 25
30 28 26 24 22 21 20 20 20 20 19 19 18 18 17 16 15 14 13 12 10 10 11 12 15 19 22 24 25 27 28 28 27 26 25 23 22 21 21 22 22 23 24
32 30 28 27 25 25 24 23 22 21 20 20 19 18 17 16 15 14 12 11 9 9 10 12 15 18 21 23 25 28 29 30 29 28 26 25 24 24 24 24 24 25 25
30 30 29 28 27 26 26 25 23 22 21 20 20 19 18 17 16 14 13 11 10 9 10 12 14 17 19 22 25 27 29 31 31 30 28 27 27 26 25 25 25 26 26
28 28 27 26 26 25 25 24 23 22 21 21 20 20 19 18 17 16 14 12 11 10 10 11 13 16 18 21 24 28 30 31 32 31 30 29 28 27 26 26 25 26 26
26 26 25 24 23 23 23 23 23 23 22 21 21 21 20 19 19 18 17 15 13 12 11 11 13 15 18 20 24 28 31 33 34 34 33 32 30 28 27 26 25 25 25
25 24 23 22 20 20 19 20 21 22 21 21 21 21 20 20 20 20 19 17 15 13 13 12 14 16 18 21 25 28 31 33 35 35 35 34 33 31 28 26 25 24 24
26 24 23 21 19 17 16 16 17 18 20 20 20 20 21 20 20 20 20 18 17 15 14 14 15 17 19 21 24 28 31 34 36 37 37 36 35 33 31 28 26 25 24
27 25 23 21 19 17 15 14 14 15 17 19 19 19 20 20 21 21 20 19 18 17 16 16 17 18 20 22 25 28 32 35 37 38 38 37 36 34 32 30 28 27 26
Wind_Direction
288 281 273 268 262 257 253 251 252 251 249 247 243 243 245 249 254 257 259 258 258 259 261 263 265 266 268 268 268 269 271 274 277 282 286 288 287 281 274 270 268 265 263
287 277 266 259 251 245 240 241 242 242 241 238 240 243 250 256 258 258 258 257 258 261 264 266 268 269 270 270 268 268 269 272 276 280 283 286 289 289 280 273 269 266 264
287 272 259 248 241 235 234 234 232 233 236 236 238 246 254 257 258 259 259 261 263 265 267 269 271 272 271 271 271 271 271 272 273 276 279 281 284 288 287 278 271 267 264
294 275 253 243 239 235 230 228 229 233 236 238 243 250 255 259 261 262 265 268 270 271 272 273 274 274 274 274 273 272 272 271 272 273 274 276 279 281 285 286 276 268 263
302 285 259 248 242 235 231 230 233 235 239 244 250 256 262 267 270 272 274 275 275 275 275 275 276 276 276 275 275 273 272 272 272 272 273 274 275 276 278 280 279 274 271
309 297 275 257 248 237 240 244 245 247 251 256 259 264 269 273 277 278 279 278 278 278 277 277 277 277 276 276 276 275 274 274 274 274 274 274 274 273 274 274 274 272 271
311 301 292 277 263 268 273 265 262 264 266 267 267 269 272 275 277 279 279 279 278 279 279 278 277 276 276 277 277 278 279 279 278 277 278 277 275 273 271 270 270 269 269
304 291 285 280 283 282 283 282 278 275 273 270 270 270 271 272 275 277 277 277 278 279 279 278 278 278 279 280 280 281 281 280 280 280 280 279 277 275 273 270 269 266 264
301 289 278 275 274 278 280 279 278 277 276 274 270 269 268 267 268 270 272 274 276 278 279 279 280 281 282 282 283 282 282 282 281 281 281 280 279 277 275 272 268 266 264
302 295 287 282 278 276 276 278 280 281 280 273 268 266 262 261 262 264 269 273 276 278 280 283 286 287 287 286 286 285 284 284 283 282 280 279 278 277 275 273 270 268 266
295 299 296 291 286 282 279 281 281 278 271 266 260 254 253 254 256 261 269 276 279 281 284 286 289 290 290 290 289 288 287 286 284 283 281 280 278 276 274 273 271 269 266
280 291 294 296 296 292 284 280 278 269 255 252 254 255 254 254 260 269 276 280 282 284 288 291 293 294 294 294 293 292 291 289 288 286 285 283 281 279 277 274 271 269 267
267 273 277 282 284 278 268 264 264 257 249 249 253 255 257 263 270 274 278 281 285 289 293 296 298 299 300 300 299 298 295 294 293 291 289 286 284 282 279 276 273 271 268
260 261 260 261 262 258 251 246 244 247 249 250 253 257 263 268 272 278 282 287 290 293 297 300 303 305 307 308 307 305 301 298 296 295 293 292 290 286 283 280 277 273 271
254 252 251 251 252 250 248 247 246 248 252 255 257 260 265 270 275 280 285 289 290 292 298 305 310 315 317 317 315 311 308 304 300 298 297 296 294 292 289 284 280 277 274
249 248 247 247 248 249 249 250 251 252 253 256 259 262 265 268 273 277 281 283 284 291 302 313 321 326 328 326 323 319 314 309 305 302 300 298 297 295 292 288 285 281 276
246 246 246 247 249 250 250 249 250 251 251 252 255 258 260 263 267 270 272 273 280 293 309 321 329 334 336 335 333 330 325 320 315 312 307 303 300 297 294 292 288 285 281
243 245 247 249 251 253 254 252 251 250 249 248 250 253 256 260 262 264 264 267 278 295 314 328 336 340 341 341 340 338 335 331 328 324 320 314 308 303 299 296 293 289 285
241 243 247 249 252 256 257 255 252 249 248 247 249 251 255 257 259 259 257 262 276 296 315 328 337 342 343 343 342 341 339 337 334 331 327 322 316 309 303 299 296 294 290
238 241 244 249 253 256 256 255 252 249 247 247 249 253 256 258 258 256 254 258 270 292 313 326 336 342 344 345 344 342 341 339 337 334 330 326 321 315 307 301 296 294 293
235 238 243 248 252 254 254 254 251 249 247 246 249 253 256 256 254 251 250 252 263 282 304 321 333 339 342 344 345 345 344 342 339 336 332 328 324 319 313 305 299 295 293
233 236 241 247 250 251 252 252 252 250 248 246 248 253 255 254 250 247 245 246 255 271 292 311 324 331 336 340 344 345 345 344 341 338 334 330 326 322 317 311 304 299 296
232 233 237 242 245 247 250 253 255 253 250 248 249 252 253 252 248 245 243 245 252 265 282 300 314 322 328 334 339 342 342 342 341 339 336 333 330 326 321 315 309 304 300
228 228 232 236 239 244 249 255 257 255 251 249 249 250 249 248 246 245 245 248 254 264 277 291 305 314 323 329 334 337 339 340 339 338 336 334 332 329 325 320 315 310 307
224 225 227 229 232 238 244 252 256 254 250 248 249 248 247 245 244 245 247 251 257 265 274 286 298 307 316 323 329 333 336 337 337 336 335 333 332 329 326 323 319 316 313
219 222 224 224 226 231 237 245 250 250 249 249 250 249 247 247 247 248 250 254 259 266 273 282 293 303 311 318 324 329 332 334 335 334 333 332 332 329 326 322 320 318 316
Height
5743 5739 5737 5736 5735 5735 5737 5739 5742 5744 5746 5748 5749 5751 5753 5755 5758 5760 5761 5763 5764 5765 5766 5767 5767 5767 5767 5766 5766 5765 5764 5763 5762 5760 5758 5755 5753 5751 5749 5748 5747 5747 5747
5728 5725 5724 5723 5722 5723 5726 5729 5732 5736 5738 5740 5741 5744 5746 5749 5751 5752 5753 5755 5756 5757 5757 5758 5758 5758 5758 5757 5757 5756 5755 5754 5753 5752 5750 5747 5745 5742 5740 5738 5737 5737 5737
5717 5714 5712 5713 5712 5713 5716 5719 5723 5727 5730 5732 5734 5737 5740 5742 5743 5745 5746 5747 5748 5748 5749 5749 5749 5749 5748 5748 5747 5747 5746 5745 5744 5743 5741 5740 5738 5736 5733 5731 5729 5728 5728
5708 5705 5705 5706 5706 5707 5709 5712 5716 5720 5723 5726 5728 5731 5733 5735 5737 5738 5739 5739 5740 5740 5740 5740 5740 5739 5739 5739 5738 5737 5736 5736 5735 5734 5733 5731 5730 5729 5728 5725 5723 5721 5720
5704 5702 5702 5702 5702 5704 5706 5708 5711 5714 5718 5720 5723 5725 5727 5728 5729 5730 5731 5732 5732 5733 5732 5732 5731 5731 5730 5730 5729 5729 5728 5727 5726 5725 5724 5723 5722 5722 5722 5720 5718 5715 5714
5701 5700 5700 5701 5701 5702 5704 5705 5708 5711 5713 5715 5717 5719 5720 5721 5723 5723 5724 5725 5725 5725 5725 5724 5723 5723 5722 5721 5721 5720 5719 5718 5717 5716 5715 5714 5714 5713 5713 5713 5712 5710 5709
5701 5700 5699 5699 5700 5701 5702 5703 5705 5707 5708 5710 5712 5713 5714 5715 5716 5717 5718 5718 5718 5718 5717 5716 5715 5715 5714 5713 5712 5711 5710 5709 5708 5707 5706 5705 5704 5704 5704 5704 5704 5703 5702
5699 5698 5698 5698 5698 5698 5699 5700 5701 5702 5703 5704 5706 5707 5708 5709 5710 5710 5711 5711 5710 5710 5710 5709 5708 5707 5706 5705 5704 5702 5701 5700 5699 5698 5697 5695 5695 5694 5694 5695 5695 5695 5694
5698 5697 5696 5696 5696 5695 5695 5696 5696 5697 5697 5698 5699 5700 5701 5702 5703 5704 5704 5704 5704 5703 5703 5702 5701 5700 5699 5698 5696 5695 5694 5692 5690 5689 5687 5686 5685 5685 5684 5685 5685 5685 5686
5696 5695 5694 5693 5693 5692 5692 5692 5691 5691 5692 5693 5693 5694 5695 5696 5697 5698 5698 5698 5698 5698 5697 5696 5695 5694 5693 5691 5689 5688 5685 5683 5681 5679 5678 5677 5676 5675 5674 5674 5674 5675 5675
5693 5692 5691 5691 5690 5689 5688 5688 5687 5688 5688 5689 5690 5690 5691 5692 5693 5693 5693 5694 5693 5693 5692 5691 5690 5688 5687 5685 5682 5680 5677 5675 5672 5670 5668 5667 5666 5665 5664 5664 5664 5664 5665
5690 5689 5688 5688 5687 5686 5686 5685 5685 5685 5686 5687 5687 5688 5689 5689 5689 5689 5690 5690 5690 5689 5688 5687 5686 5684 5682 5679 5676 5673 5670 5667 5664 5662 5659 5657 5656 5654 5653 5653 5653 5653 5654
5687 5687 5686 5686 5686 5685 5684 5683 5683 5683 5684 5685 5685 5685 5686 5686 5686 5686 5686 5686 5686 5685 5684 5683 5681 5679 5676 5673 5669 5666 5662 5659 5656 5653 5650 5648 5646 5644 5642 5642 5641 5642 5643
5683 5683 5683 5683 5683 5683 5682 5682 5682 5682 5682 5682 5682 5682 5682 5682 5682 5682 5683 5682 5682 5681 5680 5678 5676 5673 5670 5666 5663 5659 5656 5652 5648 5645 5643 5640 5638 5635 5633 5632 5631 5630 5631
5677 5678 5678 5679 5679 5679 5679 5679 5679 5679 5679 5679 5679 5679 5679 5679 5679 5679 5679 5679 5678 5677 5676 5674 5671 5668 5664 5660 5657 5653 5649 5646 5642 5639 5636 5633 5630 5627 5625 5623 5622 5620 5620
5671 5672 5673 5673 5674 5674 5674 5674 5674 5675 5675 5675 5675 5675 5674 5675 5675 5675 5675 5675 5674 5673 5671 5669 5666 5663 5659 5655 5651 5647 5644 5640 5636 5632 5629 5626 5623 5620 5618 5616 5614 5612 5611
5664 5665 5666 5667 5668 5669 5669 5669 5669 5670 5670 5670 5670 5670 5670 5670 5670 5671 5671 5670 5669 5668 5667 5664 5661 5658 5654 5650 5646 5642 5637 5634 5629 5625 5622 5619 5616 5613 5611 5608 5606 5605 5603
5656 5657 5659 5660 5661 5662 5663 5663 5664 5664 5664 5664 5665 5665 5665 5665 5666 5666 5666 5665 5665 5663 5662 5659 5657 5653 5650 5646 5641 5637 5632 5627 5623 5619 5615 5612 5609 5607 5604 5601 5599 5597 5595
5647 5649 5651 5652 5654 5655 5656 5657 5657 5658 5658 5659 5659 5659 5659 5660 5660 5660 5660 5660 5660 5659 5657 5655 5652 5649 5646 5641 5637 5632 5627 5622 5617 5613 5609 5605 5602 5600 5597 5595 5592 5590 5588
5636 5639 5642 5644 5646 5647 5649 5650 5651 5651 5652 5652 5653 5653 5654 5654 5654 5654 5654 5655 5655 5654 5653 5651 5648 5645 5642 5638 5633 5628 5623 5618 5613 5608 5603 5600 5596 5593 5590 5587 5585 5583 5580
5626 5630 5632 5635 5637 5639 5641 5642 5643 5644 5644 5645 5646 5647 5647 5648 5648 5649 5649 5649 5649 5649 5648 5646 5644 5641 5638 5634 5630 5625 5619 5614 5609 5604 5599 5594 5590 5586 5583 5580 5577 5574 5572
5616 5620 5623 5626 5628 5630 5632 5634 5635 5636 5637 5638 5639 5640 5640 5641 5642 5643 5643 5644 5644 5644 5643 5641 5639 5637 5634 5630 5625 5621 5616 5611 5605 5600 5595 5590 5585 5580 5576 5572 5569 5566 5563
5608 5611 5615 5617 5620 5622 5624 5626 5627 5629 5630 5632 5633 5633 5634 5634 5636 5637 5637 5638 5638 5638 5637 5636 5634 5632 5629 5625 5621 5617 5612 5607 5601 5596 5590 5584 5579 5575 5570 5566 5562 5559 5556
5600 5603 5607 5610 5612 5615 5617 5619 5620 5621 5623 5625 5626 5627 5628 5628 5629 5630 5631 5632 5632 5632 5631 5630 5628 5626 5623 5620 5616 5612 5608 5602 5597 5591 5585 5579 5574 5568 5564 5559 5555 5552 5548
5592 5596 5600 5603 5606 5608 5611 5612 5614 5615 5616 5618 5620 5621 5622 5622 5623 5624 5625 5625 5626 5625 5625 5624 5623 5621 5618 5615 5611 5607 5603 5598 5592 5586 5580 5574 5568 5562 5557 5553 5549 5545 5541
5585 5590 5594 5597 5600 5603 5605 5607 5608 5609 5610 5612 5613 5615 5616 5616 5617 5618 5618 5619 5619 5619 5618 5618 5616 5615 5612 5609 5606 5602 5597 5592 5587 5581 5574 5568 5562 5557 5551 5546 5542 5538 5534